Wind_Speed
25 23 22 21 20 21 20 18 16 13 11 8 5 4 2 2 1 1 3 4 7 9 7 9 15 20 24 31 31 27 27 25 26 28 27 26 28 25 26 28 27 21 18 14 12
26 24 23 22 21 21 22 21 19 17 14 11 8 5 3 1 1 3 1 3 5 6 6 3 14 21 28 31 29 29 23 22 25 27 28 27 27 24 25 27 27 24 24 20 15
26 25 24 22 22 21 23 23 21 19 17 14 11 8 6 4 2 1 1 1 2 3 2 5 13 21 25 28 29 29 28 24 26 29 28 29 28 28 27 29 26 23 22 22 20
26 26 25 24 23 22 22 24 24 22 20 18 15 12 10 9 4 1 1 1 1 3 3 4 9 19 23 27 31 28 21 19 23 26 28 25 26 29 30 29 26 24 21 19 20
25 27 27 27 26 24 23 23 24 25 23 22 19 16 13 12 8 4 2 2 2 3 6 7 6 12 22 26 28 28 24 21 21 25 26 26 27 28 31 32 31 27 21 16 18
24 25 27 28 28 27 26 25 24 24 25 24 22 20 16 15 13 9 7 5 4 1 4 6 6 7 16 21 26 25 23 21 23 25 26 26 28 29 30 31 33 33 25 13 14
26 26 26 27 28 29 29 28 26 25 25 25 26 24 21 20 17 13 12 10 7 4 4 5 5 2 6 21 22 23 26 27 25 22 21 21 23 25 29 32 31 32 36 15 13
28 28 28 28 28 29 30 28 28 28 27 25 25 25 26 21 21 20 16 14 11 8 5 3 4 4 2 12 17 20 20 22 23 20 19 17 20 22 25 28 29 30 36 21 16
30 29 29 29 29 29 29 29 29 29 28 28 27 25 28 26 26 23 20 16 14 12 9 7 5 5 4 5 8 13 13 18 18 18 17 14 16 16 19 23 27 31 24 23 18
33 31 30 30 30 30 30 29 28 27 27 26 28 29 30 26 27 25 25 22 18 16 15 13 10 8 8 6 6 7 13 13 13 13 15 13 13 14 15 19 24 29 18 24 30
35 34 32 31 30 30 30 30 30 29 29 28 27 27 27 26 29 27 26 24 21 19 18 16 14 11 13 12 10 5 3 8 8 6 7 11 9 10 13 16 21 26 29 23 24
37 36 34 32 32 31 29 30 31 31 32 31 29 27 28 29 30 29 27 25 23 21 21 18 15 16 19 16 14 9 5 0 3 2 1 5 9 7 12 15 18 22 21 21 16
39 38 36 34 33 33 30 29 30 31 30 30 29 29 30 28 30 32 28 26 24 23 22 20 18 23 24 20 16 14 9 9 8 9 1 1 7 9 14 20 19 22 14 15 17
35 39 38 36 35 34 33 31 31 31 29 30 29 29 31 29 28 34 31 30 28 25 23 23 22 27 29 25 17 19 21 15 13 10 3 4 6 11 16 18 15 19 16 13 21
27 33 38 38 38 36 35 33 32 32 29 31 30 29 28 28 28 34 34 34 30 30 30 23 23 28 32 29 24 25 22 19 15 10 8 5 9 10 13 15 15 16 17 18 21
25 28 32 36 38 37 37 35 34 34 32 31 31 31 30 28 30 34 33 34 34 35 33 31 29 30 32 29 28 26 24 22 19 15 11 9 14 16 17 17 15 14 11 20 23
24 26 30 32 34 36 38 36 35 35 32 33 32 31 30 31 32 33 32 33 35 35 32 31 30 30 29 27 28 28 25 23 21 19 13 11 16 20 18 17 18 14 14 20 30
26 24 29 31 31 33 36 36 36 33 33 30 32 31 29 31 33 34 33 33 33 34 32 35 31 30 30 30 33 32 29 26 23 22 16 14 14 16 20 14 18 14 18 25 23
27 26 28 30 32 33 34 35 33 33 32 29 31 30 29 27 31 33 33 33 32 32 31 33 30 32 33 36 37 35 35 28 27 22 18 18 17 16 18 19 21 23 20 26 14
27 27 32 28 29 32 33 32 33 33 32 32 31 31 31 32 31 32 33 32 30 29 30 32 30 32 37 40 38 39 34 30 26 26 21 20 23 20 20 19 20 22 23 17 10
30 29 31 32 31 29 30 31 30 30 33 33 33 33 33 34 34 34 33 31 32 31 32 32 32 30 34 42 40 41 40 36 34 29 24 20 23 18 18 18 22 22 17 7 7
31 32 31 32 35 32 29 27 26 29 32 32 35 36 36 35 34 34 31 31 32 32 34 32 34 31 34 40 43 45 43 41 39 33 27 22 17 17 16 21 25 20 16 11 14
30 31 32 31 34 35 31 27 26 27 30 32 35 37 39 39 34 34 31 28 33 37 37 33 36 33 34 37 44 46 44 43 36 37 33 29 26 20 19 24 24 15 14 13 21
23 25 28 26 29 31 33 29 27 29 31 35 38 39 38 37 37 37 31 27 34 40 34 33 36 36 36 34 37 42 43 43 38 34 33 31 30 17 15 16 21 19 16 15 19
14 18 20 21 24 28 30 29 30 32 34 38 39 42 39 35 33 32 28 26 34 31 29 34 35 34 30 35 37 40 41 39 37 34 26 29 21 16 17 18 20 20 17 18 25
10 13 18 19 23 24 26 29 33 35 37 38 40 45 43 35 31 25 26 25 31 32 34 33 32 26 31 35 39 41 40 33 33 33 28 24 23 20 22 22 19 19 18 23 24
9 11 16 19 22 26 27 29 33 35 35 38 38 47 47 38 30 26 23 24 28 32 34 32 27 23 29 32 40 41 40 35 35 30 28 29 23 23 27 24 18 21 26 22 26
Wind_Direction
212 212 210 207 206 204 204 199 198 198 192 180 167 160 175 179 149 71 124 146 133 127 120 107 91 96 89 80 75 74 66 57 58 60 58 57 60 58 54 48 42 39 41 40 65
215 215 216 213 209 209 207 206 202 202 204 197 189 178 200 149 199 183 163 159 152 153 129 103 109 108 93 88 82 80 66 59 62 62 62 59 61 57 55 51 45 40 41 41 46
220 220 219 216 214 212 211 210 209 205 207 206 202 197 210 218 223 147 181 206 228 161 122 108 117 112 98 93 87 86 84 73 64 59 58 58 57 56 52 47 40 39 43 38 39
224 223 223 223 218 216 214 212 213 212 209 211 209 208 212 230 215 155 149 272 301 356 360 359 119 116 111 102 94 81 81 75 71 59 60 59 52 53 49 47 41 40 33 41 35
229 227 225 226 223 219 219 215 215 216 212 212 213 214 213 231 230 220 200 221 270 6 2 3 57 136 117 103 98 90 77 77 74 66 60 57 55 50 46 40 35 33 28 32 34
230 231 231 228 226 223 221 220 218 217 219 216 214 216 213 226 225 216 213 209 249 300 336 356 29 128 122 119 104 91 88 88 81 72 68 53 48 43 34 27 29 30 21 40 42
234 234 232 231 230 229 226 223 221 219 219 218 217 216 216 219 226 218 220 212 211 237 295 348 13 353 142 120 105 99 99 86 77 77 69 58 52 40 33 30 33 33 27 42 53
236 236 235 232 232 232 231 230 229 224 221 221 218 217 219 216 221 227 221 218 209 213 244 290 338 322 187 129 120 112 107 95 81 72 67 54 47 39 25 24 32 32 18 43 34
236 235 236 236 234 233 233 231 231 231 227 223 222 218 223 218 224 228 227 222 220 214 218 226 244 268 242 105 153 147 132 114 97 86 77 62 50 38 29 11 23 22 25 25 14
235 237 236 236 236 234 234 233 232 232 231 227 224 223 224 218 227 227 229 229 222 216 218 217 223 235 220 214 186 153 144 123 107 99 84 77 66 47 31 7 15 10 11 24 15
233 235 236 237 237 234 232 233 233 233 233 230 228 226 225 218 230 228 233 237 233 225 229 224 222 219 217 215 215 229 145 109 112 105 93 83 56 34 13 360 3 6 352 358 357
232 232 234 236 235 235 231 232 232 231 231 230 229 227 225 218 224 228 230 234 236 237 235 231 232 211 218 213 210 227 152 205 217 178 42 45 27 25 359 353 355 351 353 339 346
235 233 232 234 234 233 233 231 232 231 230 231 229 225 227 224 220 230 225 229 231 232 237 232 230 214 218 222 217 216 189 207 220 222 184 346 39 355 346 348 358 351 348 312 307
238 235 234 233 233 232 231 231 232 231 229 230 228 226 229 223 218 227 228 225 225 225 230 230 226 220 219 223 225 198 216 216 228 250 252 274 318 334 345 340 343 349 358 300 320
242 238 235 235 233 232 231 232 231 232 227 228 225 225 225 223 221 225 225 225 223 226 229 228 228 224 223 224 224 199 223 231 234 239 276 276 297 318 327 313 327 344 345 2 343
241 239 236 235 235 234 233 232 230 231 228 227 226 225 224 219 219 225 222 224 223 223 224 221 220 232 227 227 222 213 226 235 238 243 271 311 291 291 290 310 324 333 2 3 4
244 236 237 233 233 234 235 234 231 229 226 227 230 226 225 219 220 223 225 226 225 226 224 224 222 229 226 221 217 212 219 231 241 248 264 287 286 289 294 311 318 326 2 1 358
244 240 238 235 229 232 233 234 234 229 229 227 233 228 226 220 222 226 225 225 226 228 221 224 221 223 227 215 214 216 219 232 240 240 247 270 280 280 285 299 325 329 346 355 5
246 238 238 235 233 231 230 233 234 235 232 227 230 233 227 226 226 229 231 229 222 226 226 225 221 226 224 218 217 226 223 228 242 244 248 258 270 273 276 285 303 313 343 355 349
247 239 237 235 233 234 231 229 232 232 230 226 225 230 231 227 227 229 234 233 227 221 222 220 218 221 223 225 223 223 227 228 232 246 251 263 263 274 274 296 311 321 353 349 341
248 238 236 231 230 228 227 226 228 223 223 222 222 223 230 233 230 233 233 231 227 217 218 218 216 218 225 223 223 223 230 231 237 247 254 264 277 278 274 283 299 317 358 4 7
248 238 234 230 227 226 224 226 224 222 222 220 219 217 225 231 235 233 235 233 226 221 220 219 219 211 223 222 222 225 228 231 236 243 250 259 268 277 282 282 290 312 337 340 356
247 233 229 227 226 224 225 227 225 224 222 218 217 224 221 226 231 237 239 234 223 218 219 218 220 214 221 221 223 223 229 236 243 247 251 259 259 279 275 276 285 317 328 296 332
254 235 227 228 226 224 224 223 215 222 222 217 213 221 229 229 230 235 238 237 223 215 214 219 220 216 221 225 222 227 229 233 238 241 252 260 265 277 279 290 294 306 322 298 306
250 228 222 225 226 225 223 220 214 219 223 219 213 219 228 232 233 226 235 228 217 207 206 216 221 223 215 214 215 220 228 233 242 246 254 263 263 252 267 271 291 304 306 296 300
249 225 219 224 224 221 220 216 216 217 222 226 215 222 224 229 232 217 224 221 214 205 198 212 218 220 212 207 212 219 228 231 242 249 245 245 242 257 270 279 294 299 303 294 307
260 230 222 222 226 221 219 216 217 218 221 228 221 224 227 226 225 212 214 225 214 200 199 210 218 212 206 204 210 219 227 234 243 243 249 256 250 263 271 282 294 290 285 300 301
Height
5879 5882 5886 5888 5891 5894 5896 5898 5901 5902 5903 5904 5905 5905 5906 5906 5907 5907 5906 5908 5906 5908 5909 5910 5909 5908 5906 5905 5905 5905 5905 5905 5904 5901 5900 5898 5895 5896 5894 5892 5889 5887 5884 5883 5881
5877 5880 5883 5886 5889 5891 5894 5896 5899 5901 5903 5904 5905 5906 5906 5906 5906 5907 5908 5909 5909 5909 5911 5911 5910 5910 5908 5907 5908 5907 5908 5911 5907 5905 5903 5902 5900 5900 5898 5895 5894 5892 5889 5887 5885
5874 5877 5880 5883 5886 5888 5891 5894 5897 5899 5902 5904 5905 5906 5906 5907 5908 5909 5910 5910 5911 5911 5911 5911 5912 5911 5909 5910 5910 5910 5911 5912 5911 5908 5907 5905 5905 5903 5902 5900 5897 5894 5893 5891 5888
5871 5874 5877 5879 5882 5885 5888 5891 5894 5897 5900 5901 5903 5905 5906 5906 5910 5910 5911 5911 5912 5912 5913 5913 5914 5913 5911 5911 5911 5913 5914 5914 5913 5911 5910 5909 5908 5906 5904 5902 5901 5897 5894 5893 5892
5867 5870 5873 5876 5879 5882 5885 5888 5891 5894 5897 5899 5902 5904 5906 5906 5909 5910 5911 5912 5913 5913 5913 5913 5915 5916 5914 5913 5913 5913 5915 5915 5914 5914 5913 5912 5910 5909 5907 5905 5902 5899 5896 5895 5894
5863 5866 5869 5872 5875 5878 5881 5884 5887 5890 5894 5897 5900 5902 5905 5906 5907 5909 5910 5911 5912 5913 5914 5914 5916 5918 5916 5914 5914 5915 5917 5916 5916 5916 5915 5915 5913 5912 5910 5907 5903 5901 5898 5896 5896
5859 5862 5864 5868 5870 5873 5877 5880 5884 5886 5890 5894 5897 5899 5902 5904 5905 5907 5908 5910 5911 5913 5914 5915 5916 5918 5920 5918 5918 5917 5919 5918 5918 5918 5919 5918 5916 5915 5913 5911 5908 5905 5903 5899 5899
5854 5857 5860 5862 5865 5868 5872 5875 5879 5883 5886 5889 5893 5896 5898 5901 5901 5903 5906 5908 5910 5912 5914 5915 5916 5917 5920 5921 5921 5920 5920 5919 5920 5921 5921 5921 5920 5918 5916 5915 5914 5912 5909 5907 5905
5849 5851 5854 5857 5859 5863 5866 5870 5874 5877 5881 5885 5889 5892 5894 5897 5899 5901 5904 5906 5909 5911 5912 5914 5916 5917 5919 5920 5921 5920 5921 5920 5920 5921 5921 5922 5922 5922 5919 5918 5917 5916 5914 5913 5909
5843 5846 5848 5851 5854 5857 5860 5864 5868 5872 5876 5880 5884 5888 5890 5894 5895 5899 5901 5904 5906 5908 5911 5913 5914 5916 5918 5918 5919 5920 5922 5922 5922 5923 5921 5921 5922 5923 5922 5920 5919 5919 5916 5914 5911
5836 5840 5842 5845 5848 5851 5856 5860 5865 5868 5870 5874 5879 5882 5886 5891 5891 5894 5897 5900 5904 5906 5908 5910 5913 5915 5917 5916 5918 5919 5920 5922 5924 5923 5923 5921 5922 5923 5922 5921 5921 5921 5917 5916 5913
5829 5833 5836 5839 5842 5846 5850 5853 5857 5861 5864 5867 5871 5876 5879 5884 5887 5890 5894 5897 5900 5903 5905 5909 5912 5913 5914 5915 5917 5918 5920 5922 5921 5922 5922 5921 5921 5923 5922 5921 5922 5921 5919 5916 5913
5820 5825 5829 5832 5836 5840 5844 5847 5850 5854 5858 5862 5866 5870 5873 5879 5883 5884 5889 5893 5895 5898 5902 5906 5910 5909 5911 5913 5916 5918 5920 5919 5920 5919 5919 5920 5921 5922 5921 5921 5922 5921 5918 5914 5910
5812 5816 5821 5825 5831 5833 5838 5841 5844 5848 5853 5857 5860 5863 5866 5872 5878 5878 5883 5887 5891 5896 5897 5901 5903 5905 5908 5911 5914 5916 5916 5917 5917 5916 5917 5918 5920 5920 5920 5920 5921 5921 5916 5913 5911
5806 5809 5813 5818 5822 5826 5831 5834 5838 5843 5848 5851 5854 5857 5861 5867 5872 5872 5877 5881 5886 5890 5893 5900 5900 5901 5904 5908 5909 5913 5914 5915 5915 5916 5916 5917 5918 5919 5919 5919 5920 5919 5916 5914 5911
5800 5803 5806 5810 5814 5819 5822 5827 5832 5837 5840 5844 5847 5851 5856 5860 5863 5865 5870 5875 5880 5882 5886 5890 5894 5896 5901 5903 5907 5911 5912 5913 5914 5914 5914 5915 5916 5917 5916 5917 5918 5916 5915 5912 5909
5794 5797 5799 5802 5808 5811 5815 5820 5826 5829 5834 5838 5840 5844 5849 5854 5856 5859 5864 5868 5872 5876 5882 5885 5889 5892 5897 5901 5905 5908 5909 5910 5912 5912 5912 5912 5913 5913 5914 5914 5914 5913 5912 5908 5905
5788 5791 5792 5796 5800 5803 5807 5814 5819 5822 5826 5831 5834 5838 5842 5846 5850 5853 5857 5861 5866 5870 5877 5879 5884 5888 5893 5898 5900 5903 5906 5907 5907 5909 5911 5910 5911 5913 5911 5912 5912 5910 5909 5904 5900
5782 5785 5786 5789 5793 5796 5801 5807 5812 5815 5820 5825 5828 5831 5836 5841 5846 5848 5852 5855 5860 5865 5871 5875 5880 5882 5888 5892 5896 5898 5902 5905 5904 5905 5907 5908 5909 5910 5909 5910 5909 5907 5904 5901 5896
5775 5778 5779 5783 5786 5790 5795 5800 5804 5807 5812 5818 5822 5826 5829 5835 5840 5843 5847 5852 5856 5861 5865 5870 5876 5878 5882 5885 5890 5894 5899 5901 5901 5902 5903 5904 5905 5906 5907 5907 5905 5904 5902 5897 5894
5767 5770 5773 5777 5780 5783 5789 5793 5795 5799 5804 5812 5817 5821 5823 5827 5833 5837 5842 5848 5850 5854 5857 5863 5868 5874 5876 5878 5885 5890 5892 5895 5897 5899 5899 5900 5902 5903 5904 5903 5902 5902 5900 5896 5894
5758 5762 5765 5769 5774 5778 5783 5786 5790 5794 5800 5806 5811 5815 5818 5821 5826 5831 5836 5841 5846 5850 5851 5858 5862 5867 5869 5873 5878 5881 5886 5889 5891 5895 5896 5897 5899 5900 5901 5900 5899 5900 5899 5896 5894
5748 5753 5757 5762 5766 5771 5777 5782 5787 5790 5795 5800 5805 5808 5812 5817 5822 5824 5829 5835 5840 5842 5844 5850 5854 5860 5861 5866 5869 5874 5881 5885 5887 5890 5891 5893 5894 5896 5897 5897 5896 5897 5896 5894 5893
5742 5746 5752 5757 5761 5766 5772 5777 5782 5785 5789 5794 5798 5801 5805 5811 5816 5820 5825 5830 5833 5836 5840 5842 5847 5851 5856 5863 5867 5871 5875 5879 5882 5884 5887 5888 5890 5893 5894 5893 5892 5894 5894 5892 5891
5739 5743 5748 5753 5757 5761 5766 5773 5777 5781 5784 5788 5795 5797 5800 5806 5811 5818 5824 5828 5829 5833 5836 5838 5842 5846 5851 5856 5861 5866 5870 5873 5876 5880 5882 5884 5886 5889 5890 5889 5889 5890 5889 5888 5886
5739 5742 5744 5749 5753 5757 5761 5767 5771 5775 5779 5783 5791 5792 5796 5802 5807 5815 5820 5824 5825 5829 5832 5834 5838 5842 5847 5851 5856 5860 5864 5868 5871 5874 5877 5879 5882 5884 5884 5884 5884 5886 5885 5883 5881
5739 5740 5742 5745 5749 5753 5757 5761 5765 5769 5774 5778 5784 5787 5792 5798 5804 5812 5817 5820 5823 5827 5829 5832 5835 5840 5843 5847 5850 5853 5858 5863 5866 5870 5873 5875 5878 5880 5880 5881 5880 5879 5879 5878 5877